loading
|

OBJECT AG, 59128

Orbit data source: Space-Track

OBJECT AG, 59128 is a satellite in SSO that was launched on Mon, 04 Mar 2024 UTC via an FALCON 9 launch vehicle from the Air Force Western Test Range (AFWTR). Unknown objects in Earth's orbit typically refer to objects detected orbiting the Earth but have not yet been identified or cataloged. These objects could be anything from previously untracked satellites, spent rocket stages, debris from satellite collisions, or even natural meteoroids temporarily captured by Earth's gravity.

Loading next visibility...
Loading greatness...
OBJECT AG details
Identifier
59128, 2024-043AG
Orbit
SSO
Last TLE update7 hours ago
Origin
Flag of TBDOrbAstro (TBD)
ManufacturerOrbAstro
Mission statusOperational
MissionCommercial Sigint
Bus & MotorCUBESAT 6U, Unknown motor
Mass~10 kg wet, ~10 kg dry
Launch date (UTC)
2024-03-04 (7 months ago)
Launch vehicle
FALCON 9
Launch site
Air Force Western Test Range (AFWTR)
Object typeUnknown
Radar Cross SectionLarge (>1 m²)

Expand to show TLE details & history

TLE from 7 hours ago
0 OBJECT AG
1 59128U 24043AG  24261.58113955  .00026572  00000-0  12304-2 0  9994
2 59128  97.4880  24.5188 0011774 329.8769  30.1788 15.20024132 29834
Epoch: 2024-09-17T13:56Z
Definitive object data (Epoch: 2024-09-17T13:56:50.457Z)
Latitude0.00005°
Longitude178.31481°
Altitude501.85 km
Speed7.617 km/s
True Right ascension01h 38m 04s
True Declination0° 00' 00"
Sunlit
Object was in full shadow at TLE epoch
Predictive object data (real-time)
Latitude-79.41938°
Longitude-45.78676°
Altitude530.478 km
Speed7.598 km/s
Apparent Right ascension03h 09m 08s
Apparent Declination-68° 33' 35"
Sunlit
Object is in daylight
Predictive observer data (real-time)
Local Sidereal Time14:13:51
Azimuth190.181° SSW
Elevation-60.401°
Doppler factor1
Orbital elements
Apogee510.839 km
Perigee494.636 km
Semi-major axis6,880.874 km
Eccentricity0.0011774
Inclination97.488°
RAAN24.5188°
Arg. of periapsis329.8769°
True anomaly30.24671°
Mean anomaly30.1788°
Eccentric anomaly30.21275°
Mean motion3.80257 °/min
BSTAR0.0012304
Period94.67 mins
No data available

OBJECT AG Visibility forecast

Observer location: 39.9160978°, -105.1181434

OBJECT AG is not visible in the next 10 days
Span
Click to sort rows by Start time (UTC) header in descending order
Start Az.
Max El. time (UTC)
Max El. Az.
Max El.
End time (UTC)
End Az.